Regional Weather Roundup
Issued by NWS Mobile, AL

Home | Current Version | Previous Version | Text Only | Print | Product List | Glossary On
Versions: 1 2 3 4 5 6 7 8 9 10 11 12 13 14 15 16 17 18 19 20 21 22 23 24 25 26 27
000
ASUS44 KMOB 210912
RWRMOB
REGIONAL WEATHER ROUNDUP
NATIONAL WEATHER SERVICE MOBILE AL
400 AM CDT THU SEP 21 2017

NOTE: "FAIR" INDICATES FEW OR NO CLOUDS BELOW 12,000 FEET WITH NO
      SIGNIFICANT WEATHER AND/OR OBSTRUCTIONS TO VISIBILITY.

  * THESE STATIONS ARE PART OF THE UNIVERSITY OF SOUTH ALABAMA
    MESONET AND ARE NOT UNDER NWS OR FAA QUALITY CONTROL.

ALZ061>064-211000-
COASTAL ALABAMA

CITY           SKY/WX    TMP DP  RH WIND       PRES   REMARKS
MOBILE REG APT CLEAR     71  69  93 CALM      30.00S
BROOKLEY FIELD MOCLDY    73  72  96 CALM      30.00F
USA CAMPUS*    NOT AVBL
DOG RIVER*     NOT AVBL


CITY           SKY/WX    TMP DP  RH WIND       PRES   REMARKS
GULF SHORES    CLEAR     71  71 100 CALM      29.98S

$$

ALZ051>060-211000-
INTERIOR SOUTHWEST AND SOUTH CENTRAL ALABAMA

CITY           SKY/WX    TMP DP  RH WIND       PRES   REMARKS
GREENVILLE     PTCLDY    71  67  87 CALM      30.00S
EVERGREEN      PTCLDY    70  69  97 CALM      30.01R FOG
ATMORE*          N/A    N/A N/A N/A CALM        N/A
ANDALUSIA/OPP  CLEAR     73  70  90 CALM      29.99S FOG
ANDALUSIA*       N/A     72  70  94 SW2       30.00S
FLORALA APT    NOT AVBL
FLORALA*         N/A     70  70 100 CALM      30.68R

$$

FLZ001>006-211000-
WESTERN FLORIDA PANHANDLE

CITY           SKY/WX    TMP DP  RH WIND       PRES   REMARKS
PENSACOLA      CLOUDY    76  70  82 NW6       29.98S
NAS PENSACOLA  CLOUDY    73  71  93 CALM      29.97S
MILTON         CLOUDY    71  71 100 CALM      29.99S
WHTNG S FIELD  CLOUDY    75  72  90 N5        29.99S


CITY           SKY/WX    TMP DP  RH WIND       PRES   REMARKS
JAY*             N/A     72  70  94 NW3       30.00R
DUKE FIELD     MOCLDY    72  71  96 CALM      29.98S
CRESTVIEW      CLOUDY    71  69  93 CALM      30.00S
VALPARAISO     MOCLDY    74  72  93 CALM      29.97S
DESTIN         CLOUDY    80  74  81 CALM      29.97S

$$

MSZ076-079-211000-
INTERIOR SOUTHEAST MISSISSIPPI

CITY           SKY/WX    TMP DP  RH WIND       PRES   REMARKS
LEAKESVILLE*   NOT AVBL
AGRICOLA*        N/A     68  68 100 CALM      29.99S

$$

MARINE OBSERVATIONS

STATION/POSITION TIME  TEMP    WIND        PRES    WAVE
                       AIR SEA DIR/SP/G            HT/PER
                 (UTC) (F)     (DEG/KT/KT) (MB)    (FT/S)
PASCAGOULA       0842   75      30/  4/  4 1015.3S
PETIT BOIS ISLND 0842   78      20/  6/  7 1016.2R
GRAND BAY        0745   72     360/  4     1016.0S
KATRINA CUT      0830   79      10/  5     1015.2S
CEDAR POINT      0830   75      10/  5     1015.6S
E DAUPHIN ISLAND 0800   80     320/  5/  6 1015.1F
MIDDLE BAY LIGHT 0830   78     350/  6     1015.9R
USCG MOBILE BAY  0842   73 82   10/  1/  2 1015.5S
STATE DOCKS      0842   73 81              1015.5F
MEAHER PARK      0830   74      10/  2     1015.2F
WEEKS BAY        0745   73                 1015.0S
FORT MORGAN      0842   80     360/  3/  5   N/A
12 S ORANGE BCH  0850   81 83  310/  6/  8 1014.9S   1
PENSACOLA BAY    0848   78 83              1015.1F
64 S DAUPHIN ISL 0850   81 83  300/  4/  4 1015.2F   1
67 S FORT MORGAN 0830   81                 1015.2S

$$

SELECTED LOCATIONS ACROSS THE REGION

CITY           SKY/WX    TMP DP  RH WIND       PRES   REMARKS
NEW ORLEANS    PTCLDY    74  73  97 CALM      29.99S
GULFPORT       CLEAR     74  72  93 CALM      29.98S
PASCAGOULA AP  CLEAR     68  66  93 CALM      29.99S FOG
PASCAGOULA*      N/A    N/A N/A N/A CALM        N/A
HATTIESBURG    CLEAR     71  71 100 CALM      30.00S
LAUREL         PTCLDY    69  69 100 CALM      30.01S
MERIDIAN       CLEAR     69  68  96 CALM      30.02R
JACKSON        CLEAR     69  68  96 CALM      30.02R
MONTGOMERY     CLEAR     72  68  87 CALM      30.00R FOG
TROY           CLEAR     69  69 100 CALM      30.01S FOG
ASHFORD*         N/A     72  70  94 SW2       30.00S
DOTHAN         CLEAR     73  73 100 NW5       30.02R
PANAMA CITY    CLEAR     73  71  93 CALM      29.96S

$$





USA.gov is the U.S. government's official web portal to all federal, state and local government web resources and services.